Location: Oshawa
(43.9000°N, 78.8670°W)
Time: 10:01:13
(UTC-04:00)

Daily predictions for brighter satellites

Satellite Brightness Start Highest point End
(mag) Time Altitude Azimuth Time Altitude Azimuth Time Altitude Azimuth
Meteor 2-10 Rocket 4.5 21:08:05 10° NNW 21:13:46 58° W 21:19:16 10° S
Cosmos 1833 Rocket 4.2 21:09:49 10° N 21:14:14 23° NE 21:18:39 10° ESE
CZ-4 DEB 2.8 21:11:54 10° SSE 21:15:04 87° WSW 21:18:15 10° NNW
COSMOS 2406 4.5 21:13:08 10° NW 21:18:30 41° WSW 21:23:48 10° S
Cosmos 1844 Rocket 2.9 21:13:58 10° SSW 21:19:38 82° WNW 21:25:18 10° NNE
Cosmos 1825 2.7 21:16:53 10° SSE 21:20:27 38° E 21:24:01 10° NNE
Cosmos 1939 Rocket 3.0 21:17:08 10° SSE 21:20:56 54° ENE 21:24:49 10° N
GPS 2-05 Rocket1 4.5 21:18:11 10° SW 21:21:08 22° S 21:24:01 10° SE
Cosmos 2278 Rocket 2.4 21:16:21 10° S 21:21:49 52° ESE 21:27:20 10° NE
Cosmos 1674 Rocket 3.9 21:18:09 10° NNW 21:22:36 71° W 21:27:00 10° S
SL-27 R/B 4.2 21:19:40 10° NW 21:22:58 33° WSW 21:26:12 10° SSW
SL-8 R/B 4.4 21:19:14 10° W 21:24:00 58° NNW 21:28:46 10° ENE
Cosmos 1844 3.8 21:22:11 10° SSW 21:27:57 87° ESE 21:33:48 10° NNE
ALOS 3.9 21:24:24 10° SSW 21:28:41 35° W 21:33:00 10° NNW
Okean 2 Rocket 3.7 21:29:12 10° SSE 21:33:15 38° E 21:37:20 10° NNE
NOSS 5 (C) 4.3 21:31:24 10° SW 21:34:45 81° NW 21:37:52 10° NE
Envisat 3.0 21:33:00 10° SSE 21:38:03 76° ENE 21:43:09 10° N
USA 186 4.3 21:36:16 10° SSW 21:38:49 22° W 21:41:29 10° NW
Cosmos 2082 Rocket 2.9 21:34:52 10° NNW 21:40:16 41° ENE 21:44:56 13° SE
PSLV R/B 4.0 21:38:39 14° SE 21:40:42 31° ENE 21:43:22 10° N
Cosmos 614 Rocket 4.4 21:35:53 10° N 21:40:48 46° ENE 21:45:01 14° SE
Cosmos 1782 Rocket 3.7 21:36:41 10° S 21:41:03 56° E 21:45:26 10° NNE
Nadezhda 3 Rocket 4.1 21:37:07 10° N 21:43:31 89° W 21:49:54 10° S
CZ-4 SHROUD 4.1 21:41:47 15° SE 21:43:54 33° ENE 21:46:44 10° N
Intercosmos 25 3.7 21:43:01 11° SSE 21:45:52 31° E 21:48:43 10° NNE
Sich 1 Rocket 4.3 21:42:06 10° SSW 21:46:37 59° W 21:51:10 10° N
Cosmos 2084 3.7 21:44:15 10° SW 21:48:04 63° NW 21:51:54 10° NNE
ERS-1 Rocket 3.6 21:45:01 10° S 21:49:58 58° W 21:54:57 10° NNW
Cosmos 1420 Rocket 4.0 21:45:08 10° S 21:50:17 62° ESE 21:55:27 10° NNE
APEX 3.8 21:46:58 10° S 21:50:50 51° ESE 21:55:53 10° NE
COSMOS 2487 3.0 21:47:37 10° NNW 21:51:12 60° WSW 21:54:41 10° S
DNEPR-1 R/B 3.8 21:46:21 10° NW 21:51:52 89° SW 21:55:32 16° SSE
Cosmos 1975 Rocket 3.0 21:50:01 10° N 21:54:22 81° E 21:58:29 11° S
Cosmos 1140 Rocket 3.5 21:50:17 10° NNW 21:55:27 87° WSW 22:00:07 13° SSE
Cosmos 2297 3.8 21:53:47 10° S 21:59:18 54° ESE 22:04:53 10° NNE
EO 1 Delta rocket 4.3 21:55:45 10° N 22:01:52 82° W 22:06:48 10° SSW
Cosmos 1378 Rocket 4.3 21:59:28 10° NNW 22:03:39 51° W 22:07:50 10° S
Terra 3.4 22:01:13 14° E 22:03:44 20° ENE 22:07:12 10° NNE
CZ-4B R/B 3.9 22:01:19 10° NNE 22:05:58 40° E 22:09:18 17° SSE
Cosmos 1606 4.4 22:03:22 10° NNW 22:06:56 33° W 22:10:27 10° SSW
ISS -2.5 22:04:02 10° WSW 22:07:13 52° NNW 22:10:25 10° NE
Cosmos 1536 Rocket 4.4 22:03:03 10° N 22:07:13 36° ENE 22:09:31 22° SE
MetOp-B 4.1 22:04:33 14° SSE 22:09:13 85° ENE 22:14:36 10° NNW
Cosmos 1238 Rocket 3.7 22:09:39 10° NNW 22:12:51 41° W 22:16:34 10° SSW
H-2A R/B 3.1 22:11:12 19° ESE 22:14:13 32° ENE 22:18:51 10° N
BREEZE-M DEB (TANK) 3.3 22:12:28 10° WNW 22:14:18 27° N 22:16:52 10° ENE
Cosmos 2341 Rocket 4.3 22:08:11 10° SSW 22:14:28 71° W 22:20:43 10° N
Cosmos 1184 Rocket 4.2 22:15:17 10° SSW 22:18:26 40° WNW 22:21:38 10° N
deb Chang Zheng 4 4.5 22:14:41 10° N 22:18:59 52° WNW 22:23:17 10° SSW
SPOT 5 3.4 22:14:02 12° S 22:19:00 66° WSW 22:24:21 10° NNW
SL-8 Rocket 3.9 22:14:52 10° S 22:21:08 80° E 22:27:23 10° N
Abrixas 3.9 22:23:21 10° SW 22:24:56 24° SSW 22:24:56 24° SSW
USA 245 3.2 22:25:48 29° SSE 22:27:34 89° WSW 22:31:58 10° NNW
Cosmos 1242 Rocket 3.6 22:25:14 10° NNW 22:28:44 43° W 22:31:23 16° SSW
Gbstr 26 Del rocket 3.8 22:23:40 10° NW 22:28:53 54° NNE 22:31:42 21° E
Cosmos 2369 Rocket 4.1 22:29:37 12° E 22:29:37 12° E 22:31:11 10° ENE
Timation 2 Rocket 4.4 22:23:52 10° NW 22:29:41 55° WSW 22:34:07 17° S
SPOT 1/Viking Rocket 3.5 22:26:12 21° SSE 22:29:43 90° NE 22:34:59 10° NNW
Lacrosse 5 2.9 22:31:52 25° ESE 22:31:52 25° ESE 22:35:23 10° ENE
ARGOS 3.1 22:27:48 23° SSE 22:31:15 82° ENE 22:36:38 10° NNW
H-2A R/B 3.8 22:30:18 10° SSW 22:34:00 28° W 22:37:40 10° NW
YAOGAN 6 3.3 22:33:23 22° SSW 22:35:22 48° W 22:38:49 10° NNW
Cosmos 2151 Rocket 3.5 22:36:41 21° S 22:39:42 87° E 22:44:15 10° N
CZ-4C R/B 3.7 22:38:45 37° SE 22:39:58 52° ENE 22:44:03 10° N
USA 229 DEB 3.8 22:39:02 10° NW 22:46:08 75° WSW 22:50:15 28° SSE
USA 229 3.8 22:39:08 10° NW 22:46:14 76° WSW 22:50:21 28° SSE
Cosmos 1300 Rocket 3.9 22:49:12 40° SE 22:50:07 46° E 22:54:24 10° NNE
ASTEX 1 4.1 22:46:03 10° NNE 22:50:36 35° E 22:51:33 33° ESE
Cosmos 864 Rocket 4.4 22:45:50 17° S 22:50:43 89° W 22:56:56 10° N
NOSS 8 (E) 4.4 22:48:12 13° SW 22:51:11 87° NW 22:54:58 10° NE
Meteor 1-20 Rocket 4.1 22:50:14 28° S 22:53:15 70° E 22:58:44 10° NNE
Timation 1 Rocket 4.2 22:48:55 11° SSW 22:54:36 74° ESE 23:00:36 10° NNE
Okean 1 Rocket 3.4 22:56:16 43° ESE 22:57:00 47° E 23:01:18 10° NNE
Cosmos 1833 Rocket 2.9 22:53:04 10° NNW 22:58:38 63° WSW 23:01:16 31° S
Cosmos 2366 rocket 4.2 22:57:17 14° SSW 23:02:49 70° W 23:09:10 10° N
SAR-Lupe-2 4.3 23:03:12 38° ENE 23:03:12 38° ENE 23:06:33 10° N
NOSS 3-1 (A) 4.4 22:57:03 10° NNW 23:04:21 56° NE 23:09:02 26° ESE
Cosmos 2278 Rocket 4.3 23:01:26 10° WSW 23:06:12 27° NW 23:11:01 10° N
SL-8 R/B 4.4 23:02:21 10° WNW 23:07:04 51° N 23:10:21 19° ENE
Cosmos 1331 Rocket 3.8 23:05:38 30° SSW 23:08:15 83° ESE 23:13:26 10° NNE
CZ-4 R/B 4.0 23:04:01 10° N 23:08:40 67° WNW 23:11:24 24° SSW
Meteor 1-25 Rocket 4.4 23:06:56 20° SSW 23:11:03 73° W 23:16:54 10° N
Okean 1-7 Rocket 3.5 23:07:56 10° N 23:12:26 71° E 23:13:10 58° SE
Okean 1 3.3 23:09:52 10° NNW 23:13:57 76° W 23:14:37 59° SSW
Cosmos 1110 Rocket 4.1 23:13:24 21° SSW 23:16:55 74° WNW 23:22:09 10° NNE
DMSP B5D2-2 3.9 23:13:41 10° NNE 23:18:55 78° ESE 23:20:37 44° S
Cosmos 2082 Rocket 3.5 23:19:15 10° NW 23:24:12 31° WSW 23:26:48 22° SSW
ATLAS 2AS CENTAUR R/B 4.1 23:17:37 10° NNW 23:25:06 37° NE 23:30:49 16° E
Landsat 7 4.4 23:23:52 36° SSW 23:25:25 49° W 23:30:03 10° NNW
Cosmos 1812 3.6 23:22:59 10° NNW 23:26:40 42° W 23:27:16 39° WSW
Cosmos 1602 4.1 23:27:32 53° ENE 23:27:32 53° ENE 23:30:53 10° NNE
CARTOSAT-1 4.0 23:32:45 47° SW 23:33:26 52° W 23:37:41 10° NNW
NOSS 3-1 (C) 4.0 23:26:01 10° NW 23:33:34 89° NE 23:37:00 40° SE
Cosmos 1000 Rocket 4.4 23:29:23 10° N 23:35:41 90° E 23:37:43 47° S
Meteor 2-4 Rocket 3.9 23:30:50 10° N 23:36:13 55° ENE 23:37:12 48° ESE
Genesis I 3.4 23:37:08 65° NE 23:37:08 65° NE 23:40:37 10° NE
Terra 2.4 23:40:06 42° SW 23:41:07 49° W 23:45:45 10° NNW
USA 234 3.2 23:34:47 10° NE 23:41:15 59° SE 23:43:56 35° SSW
BREEZE-M TANK 2.5 23:33:38 10° WNW 23:41:49 88° SSW 23:42:07 76° ESE
Cosmos 2239 Rocket 4.4 23:40:40 47° S 23:42:39 81° E 23:48:58 10° N
Cosmos 1486 Rocket 4.3 23:38:22 10° NNW 23:43:37 59° WSW 23:44:40 49° SSW
ISS -0.7 23:41:34 10° WNW 23:44:09 21° N 23:46:45 10° NE
Cosmos 1354 Rocket 3.9 23:38:58 10° NNW 23:44:16 77° ENE 23:45:03 63° SE
Cosmos 1356 4.4 23:51:54 48° NNW 23:51:54 48° NNW 23:54:38 10° N
Cosmos 2084 Rocket 3.8 23:48:08 10° NNW 23:51:39 53° NNE 23:51:39 53° NNE
H-2A R/B 3.2 23:51:51 29° SW 23:53:31 36° W 23:58:23 10° NNW
Spot 2 4.1 23:49:15 10° N 23:53:32 70° WNW 23:53:38 70° W
Cosmos 1315 Rocket 3.7 23:55:13 41° NE 23:55:13 41° NE 23:58:01 10° NNE
